Regional Weather Roundup
Issued by NWS

Home | Current Version | Previous Version | Graphics & Text | Print | Product List | Glossary On
Versions: 1 2 3 4 5 6 7 8 9 10 11 12 13 14 15 16 17 18 19 20 21 22 23 24 25 26 27 28 29 30 31 32 33 34 35 36 37 38 39 40 41 42 43 44 45 46 47 48 49 50
000
ASUS43 KIND 241609
RWRIN

WEATHER ROUNDUP FOR INDIANA
NATIONAL WEATHER SERVICE INDIANAPOLIS IN
1100 AM EST WED DEC 24 2014

NOTE: "FAIR" INDICATES FEW OR NO CLOUDS BELOW 12,000 FEET WITH NO
SIGNIFICANT WEATHER AND/OR OBSTRUCTIONS TO VISIBILITY.

* - STATION DOES NOT REPORT WEATHER SUCH AS PRECIPITATION OR FOG.

+ - STATION NOT QUALITY CONTROLLED BY THE NATIONAL WEATHER SERVICE.
    USE DATA WITH CAUTION...ESPECIALLY DEWPOINT AND RELATIVE
    HUMIDITY OBSERVATIONS.

INZ001>003-010>013-019-020-241700-
NORTHWEST INDIANA

CITY           SKY/WX    TMP DP  RH WIND       PRES   REMARKS
GARY /AIRPORT/ LGT RAIN  41  37  87 CALM      29.60
KNOX *+        CLOUDY    40  35  83 N7        29.60S
LA PORTE +     DRIZZLE   41  41  99 NE7       29.60F
MICHIGAN CITY+ CLOUDY    39  37  93 NE6       29.59F
MONTICELLO +   DRIZZLE   40  39  96 NW10G22   29.57F
RENSSELAER +   CLOUDY    41  41 100 N7        29.58F
VALPARAISO     CLOUDY    40  37  89 NE8       29.60S

$$

LMZ046-743>745-241700-
SOUTHERN LAKE MICHIGAN

STATION/POSITION TIME  TEMP WIND        PRES
                       AIR  DIR/SP/G
                 (UTC) (F)  (DEG/KT/KT) (MB)
MICHIGAN CITY    1600   39   30/ 10/ 10   N/A

$$

INZ004-005-014>016-021>024-241700-
NORTH CENTRAL INDIANA

CITY           SKY/WX    TMP DP  RH WIND       PRES   REMARKS
ELKHART        LGT RAIN  39  37  93 N8        29.58F
GOSHEN         LGT RAIN  40  38  93 NW13      29.57S FOG
LOGANSPORT +   LGT RAIN  39  36  87 N12       29.56F
PERU/GRISSOM   LGT RAIN  40  40 100 N9        29.52F
ROCHESTER +    LGT RAIN  41  41 100 N12G17    29.56F
SOUTH BEND     LGT RAIN  40  38  93 N8        29.59F
WARSAW +       RAIN      39  37  93 N13G20    29.54F

$$

INZ006>009-017-018-025>027-241700-
NORTHEAST INDIANA

CITY           SKY/WX    TMP DP  RH WIND       PRES   REMARKS
ANGOLA *+      CLOUDY    39  39 100 N6        29.51F
AUBURN +       LGT RAIN  41  39  93 NW5       29.51F
FORT WAYNE     LGT RAIN  41  40  96 NW10      29.52F VSB 1
HUNTINGTON +   RAIN      40  40 100 NW8       29.52F

$$

INZ028-029-035-036-043>045-051>053-241700-
WEST CENTRAL INDIANA

CITY           SKY/WX    TMP DP  RH WIND       PRES   REMARKS
CRAWFORDSVL +  CLOUDY    37  36  93 N12       29.56F
GREENCASTLE +  LGT RAIN  39  36  87 NW6       29.58F
LAFAYETTE      CLOUDY    40  38  93 N7        29.57F
TERRE HAUTE    LGT RAIN  41  39  93 NW8       29.59F FOG

$$

INZ030>032-037>040-046>048-054>057-064-065-241700-
CENTRAL INDIANA

CITY           SKY/WX    TMP DP  RH WIND       PRES   REMARKS
CP ATTERBURY + DRIZZLE   41  41 100 MISG      29.53F
FRANKFORT +    RAIN      40  40 100 N9        29.58F
GREENWOOD *+   CLOUDY    41  39  93 N13G18    29.54
INDIANAPOLIS   LGT RAIN  40  39  97 N13       29.54F FOG
-EAGLE CREEK   LGT RAIN  40  39  97 N13       29.54F
KOKOMO *+      CLOUDY    41  39  93 N13       29.54F
MARION +       RAIN      40  40  99 NW9       29.55S
MT COMFORT *+  CLOUDY    41 N/A N/A N15       29.53F
SHELBYVILLE    LGT RAIN  43  40  89 N16       29.52R FOG
ZIONSVILLE +   RAIN      41  38  89 N13G20    29.55F

$$

INZ033-034-041-042-049-050-058-059-241700-
EAST CENTRAL INDIANA

CITY           SKY/WX    TMP DP  RH WIND       PRES   REMARKS
MUNCIE         LGT RAIN  42  40  92 NW14      29.52S FOG

$$

INZ060-061-067>069-081>083-085>088-241700-
SOUTHWEST INDIANA

CITY           SKY/WX    TMP DP  RH WIND       PRES   REMARKS
EVANSVILLE     LGT RAIN  44  40  85 NW12      29.63R FOG
HUNTINGBURG *+ CLOUDY    43  41  93 NW12      29.57F
WASHINGTON +   LGT RAIN  42  39  88 NW15      29.58F

$$

INZ062-063-066-070>080-084-089>092-241700-
SOUTH CENTRAL AND SOUTHEAST INDIANA

CITY           SKY/WX    TMP DP  RH WIND       PRES   REMARKS
BLOOMINGTON    RAIN      42  40  92 N12       29.54F FOG
NORTH VERNON + CLOUDY    45  45 100 NW7       29.52  FOG
SEYMOUR +      CLOUDY    45  45 100 N12       29.52  FOG

$$




USA.gov is the U.S. government's official web portal to all federal, state and local government web resources and services.